Location: Bijele Vode
(45.2833°N, 16.2000°E)
Time: 13:42:16
(UTC+00:00)

SL-08 RB Rocket - Pass Details

Date: 18 September 2020
Orbit: 647 x 684 km, 97.8° (Epoch: 30 October)

Event Time Altitude Azimuth Distance (km) Brightness Sun altitude
Exits shadow 17:54:34 - 145° (SE) 2,523 6.2 -10.4°
Reaches altitude 10° 17:55:38 10° 142° (SE) 2,104 5.8 -10.5°
Maximum altitude 18:00:00 44° 71° (ENE) 926 4.1 -11.3°
Drops below altitude 10° 18:04:21 10° 359° (N) 2,096 6.5 -12.0°
Sets 18:06:38 0° 354° (N) 3,008 7.4 -12.4°
